DELTA 1 DEB, 13533

Orbit data source: Space-Track

DELTA 1 DEB, 13533 is space debris in LEO originally from a launch on Thu, 29 Jul 1976 UTC launched from the Air Force Western Test Range (AFWTR). Debris objects in space refer to the collection of defunct objects orbiting the Earth. Examples of debris include non-operational satellites, rocket bodies, and fragments generated from explosions, collisions, or faulty payload assembly.

Loading next visibility...
Identifier
13533, 1976-077EF
Orbit
LEO
Country
Flag of USUS
Related business
Manufacturer
Unknown
Mission
Spacecraft
Bus & Motor
Unknown
Mass
Unknown
Launch date (UTC)
1976-07-29 (49 years ago)
Launch vehicle
Unknown
Launch site
Air Force Western Test Range (AFWTR)
Object type
Payload
Rocket body
Debris
Shape & HBR
Unknown shape, 1.1 m
Radar Cross Section
Small (<0.1 m²)

Expand to show TLE details & history
Last TLE update: 2 days ago

TLE from 2 days ago
0 DELTA 1 DEB
1 13533U 76077EF  25351.43558512  .00000014  00000-0  71802-3 0  9997
2 13533 101.8428 332.7364 0359157 214.5587 302.3889 11.74551269 13975
Epoch: 2025-12-17T10:27Z
TLE epoch observation values (Epoch: 2025-12-17T10:27:14.554Z)
Latitude
26.03418°
Longitude
-84.5292°
Altitude
1,650.074 km
Speed
7.114 km/s
True Right ascension
10h 34m 20s
True Declination
25° 54' 50"
Sunlit
Object was in daylight at epoch
Visualization orbit readout
Latitude
Unknown
Longitude
Unknown
Altitude
Unknown
Speed
Unknown
Apparent Right ascension
Unknown
Apparent Declination
Unknown
Sunlit
N/A
Visualization observer readout
Local Sidereal Time
07:47:01
Azimuth
Unknown
Elevation
Unknown
Doppler factor
Unknown
Orbital elements
Apogee altitude
2,088.026 km
Perigee altitude
1,500.974 km
Semi-major axis
8,172.637 km
Eccentricity
0.03592
Inclination
101.8428°
RAAN
332.7364°
Arg. of periapsis
214.5587°
True anomaly
298.83027°
Mean anomaly
302.3889°
Eccentric anomaly
300.61798°
Mean motion
2.93765 °/min
Orbital period
122.55 mins
BSTAR
0.00071802
Loading maneuver chart data...
Computing Atmospheric mass density...
Loading historical data...
Loading historical data...
Loading historical data...
Loading historical data...
Loading historical data...
Loading historical data...
Loading historical data...

Documentation

Showing up to 5 results
|